Location: Waco, TX
(31.5480°N, 97.1670°W)
Time: 21:28:32
(UTC-06:00)

ISS - Pass Details

Date: 14 February 2018
Orbit: 403 x 407 km, 51.6° (Epoch: 18 February)

Event Time Altitude Azimuth Distance (km) Brightness Sun altitude
Rises 09:28:40 0° 182° (S) 2,302 0.5 25.7°
Reaches altitude 10° 09:31:49 10° 148° (SSE) 1,447 0.3 26.2°
Maximum altitude 09:33:03 12° 126° (SE) 1,349 0.8 26.4°
Drops below altitude 10° 09:34:17 10° 103° (ESE) 1,450 0.3 26.6°
Sets 09:37:27 0° 69° (ENE) 2,313 0.4 27.2°
